Virtual Cathay Airport Information Service

Macau International Airport

ICAO: VMMC Country: China
Latitude: 22.1495 Longitude: 113.591
Latest Arrival : CPC567 (RCTP-VMMC) Latest Departure : CPC122 (VMMC-RKPC)


WX CaptureLIVE
Data provided by noaa.gov | Fetched at 04:52:25

METAR : VMMC 122030Z 16010KT 9999 FEW010 SCT025 28/26 Q1007 NOSIG

TAF : VMMC 121700Z 1218/1324 18008KT 9999 FEW010 SCT025 TEMPO 1222/1303 4500 SHRA


Runway Data for VMMC
Data provided by openaviationdata.com

Runway ID Mag Var Hdg Length Elevation Surface ILS Freq ILS Id ILS Slope
16 -2 163° 11048 ft 20 ft Concrete 111.7 MCS 0
34 -2 343° 11048 ft 20 ft Concrete 109.7 MCN 3

Macau International Airport, China
Use only for reference purposes



Not for navigational purposes.